Wind_Speed
25 25 26 26 26 26 25 25 25 25 25 25 25 24 25 26 26 27 28 29 29 30 30 30 31 32 32 32 33 33 34 34 35 36 36 36 37 37
24 25 24 24 24 24 25 25 25 25 25 24 24 24 25 26 25 25 26 28 29 30 31 31 31 31 32 33 33 34 34 35 35 36 36 37 37 38
24 25 24 24 24 24 24 25 26 26 25 25 25 25 25 26 26 25 25 27 28 29 30 30 31 31 31 32 33 34 35 35 36 36 36 37 37 37
23 23 23 24 24 24 25 26 26 26 27 26 26 25 25 25 26 27 26 27 27 28 28 29 30 31 32 32 33 33 34 35 35 36 37 38 38 38
22 22 23 23 23 24 25 25 26 27 27 27 27 26 26 25 26 26 27 27 27 27 28 29 30 31 32 32 32 32 33 34 35 36 37 38 38 38
22 22 23 23 23 24 24 25 26 26 26 27 27 27 27 27 27 27 27 28 28 28 28 29 30 31 31 31 32 32 33 34 35 36 37 37 38 39
22 23 23 23 24 25 25 25 26 26 27 27 27 27 27 27 27 28 28 28 28 28 29 29 30 31 32 32 32 33 34 34 35 35 36 37 38 38
22 23 23 23 24 25 26 26 26 26 26 27 27 27 27 27 27 27 27 28 28 28 29 29 30 30 31 31 32 33 33 33 34 35 36 37 37 38
23 23 24 24 24 24 24 24 25 25 25 25 25 25 25 26 26 26 27 28 28 28 29 28 28 29 29 30 31 31 32 33 34 34 35 36 37 38
24 24 24 24 24 24 24 25 24 24 24 24 24 25 24 24 25 25 26 26 26 27 27 27 27 27 28 29 30 30 31 31 31 32 33 34 35 35
23 24 24 24 24 24 24 24 24 23 23 23 24 24 24 25 25 25 25 25 25 25 26 26 26 26 26 27 27 28 28 29 30 31 32 33 34 35
23 23 23 23 23 24 24 23 23 23 23 23 23 23 24 24 25 25 25 25 25 24 25 25 25 25 25 25 25 25 26 27 28 29 30 32 33 34
23 23 23 23 23 24 24 24 24 23 23 23 23 23 23 23 23 24 24 24 24 23 24 24 23 23 23 23 23 24 24 25 25 26 28 29 31 32
23 23 23 23 23 24 24 23 23 23 23 23 23 23 22 22 22 21 21 21 21 21 22 22 22 23 23 24 24 24 24 25 25 26 27 27 28 30
22 23 23 24 23 23 24 23 23 22 22 22 22 21 20 20 20 19 19 19 20 20 20 20 21 22 22 23 23 23 24 24 25 25 25 26 26 27
22 22 23 23 23 23 23 22 22 22 22 21 20 19 19 19 19 19 18 18 19 19 19 19 20 21 21 21 22 23 23 23 23 23 24 25 25 26
23 23 23 23 23 23 22 21 21 21 20 19 19 19 19 18 18 18 18 18 19 19 19 18 19 19 20 20 20 20 21 21 22 23 24 24 24 25
23 23 24 24 24 23 22 21 20 21 20 20 19 19 18 18 18 18 17 17 18 18 18 18 18 18 18 18 18 18 19 19 20 20 21 21 21 21
23 23 24 24 24 22 21 20 19 19 19 19 19 18 18 18 17 17 16 16 17 17 18 18 17 17 17 16 16 16 17 18 18 18 19 19 19 20
23 23 23 23 23 22 21 20 18 18 18 18 18 18 17 17 17 17 16 16 17 17 16 16 16 16 16 15 15 15 16 17 18 18 18 18 19 19
23 23 22 22 21 21 20 19 18 18 18 18 17 17 17 16 16 16 16 16 16 16 15 15 15 15 15 14 14 15 15 16 17 16 17 17 18 19
24 23 22 22 21 20 20 19 19 18 18 18 18 17 16 16 16 16 16 16 16 15 15 15 15 14 14 14 14 14 14 14 15 15 16 16 18 18
23 22 21 21 20 20 20 20 19 19 18 18 17 17 17 17 16 16 16 15 15 15 14 14 13 13 13 13 13 13 13 13 13 14 15 15 16 16
Wind_Direction
289 289 288 287 286 285 285 286 286 286 285 282 278 276 275 275 273 269 266 265 263 261 260 260 260 260 258 257 257 257 256 255 254 252 252 251 250 250
291 290 288 288 287 286 285 286 287 287 287 284 282 278 275 273 272 270 267 266 264 262 262 262 261 259 258 256 256 257 257 256 255 253 252 251 252 250
294 292 291 290 289 287 287 287 288 287 286 285 283 280 278 275 272 269 269 267 266 264 263 262 261 260 260 259 258 258 257 257 256 255 252 251 252 251
298 295 293 291 290 288 287 286 287 287 287 285 283 282 278 276 274 272 271 269 267 264 261 261 261 261 261 261 261 260 258 257 256 255 253 251 251 251
300 298 295 293 293 292 289 288 286 286 286 285 282 280 278 277 275 276 274 271 269 266 265 264 263 263 263 263 263 262 259 257 257 255 254 253 253 251
303 300 298 297 296 294 292 291 290 289 288 286 283 281 279 279 277 276 275 274 273 271 269 268 267 267 264 263 262 262 261 258 258 256 254 254 253 252
303 300 298 297 296 294 294 294 293 291 289 287 285 284 282 280 278 278 278 277 276 275 273 272 271 269 266 264 262 263 263 261 258 257 256 255 254 253
306 304 302 300 297 296 296 295 294 294 291 288 286 285 283 282 280 279 279 277 276 275 274 273 273 270 268 265 264 263 262 261 259 258 257 256 254 254
307 306 305 303 301 301 300 297 296 294 292 290 287 286 285 284 282 281 279 278 277 275 275 274 271 271 269 267 264 263 262 261 260 259 259 257 254 254
309 308 308 308 306 305 303 301 299 296 293 290 288 288 287 285 284 283 281 280 278 277 276 274 272 270 269 269 268 265 263 263 260 259 259 258 256 254
313 312 311 309 308 307 306 304 303 299 297 294 292 289 287 287 286 286 283 282 281 278 278 276 272 270 269 268 268 267 265 263 260 259 258 257 256 254
314 314 314 312 311 310 308 307 305 302 300 298 295 292 291 290 288 286 284 282 281 280 280 277 274 272 270 270 269 268 265 264 263 261 260 258 257 256
316 316 316 314 312 310 309 308 306 303 302 301 299 296 294 293 291 288 285 283 281 280 280 278 276 273 272 272 271 270 268 266 264 263 262 260 257 256
319 319 318 316 313 312 311 310 309 307 305 304 301 298 296 295 293 290 287 285 282 280 279 279 278 275 273 272 271 271 269 268 266 266 265 262 259 258
322 322 320 319 317 316 315 313 312 310 308 307 306 304 301 299 296 293 290 288 287 285 283 283 281 278 274 271 270 270 269 267 266 266 265 263 260 259
323 324 323 322 320 318 316 315 313 312 311 310 309 305 301 300 299 297 296 292 289 288 286 284 282 281 280 277 274 272 270 269 268 269 268 266 263 261
324 326 325 324 322 320 318 317 315 315 314 313 311 308 304 302 302 301 297 293 290 288 287 285 284 283 281 280 278 275 272 271 270 270 268 266 265 265
329 330 329 328 327 324 320 319 319 319 317 315 313 311 308 305 304 302 298 294 291 290 289 288 286 284 283 283 281 276 273 271 271 270 269 268 267 266
332 331 332 332 331 329 325 321 321 321 320 317 315 312 310 307 306 304 301 297 295 294 292 290 288 285 284 282 280 276 272 272 273 273 274 272 269 269
332 332 332 333 333 332 330 327 325 324 323 321 318 317 315 311 308 307 304 301 299 297 295 293 291 289 287 285 282 280 274 274 274 275 273 271 269 269
333 332 332 333 333 334 333 331 329 328 326 324 321 318 318 317 315 312 310 308 305 303 301 298 296 292 289 289 287 284 279 276 275 275 274 273 274 273
332 331 332 333 333 334 334 333 331 329 326 325 324 322 321 319 318 316 313 313 312 310 307 305 302 298 294 293 292 290 284 281 280 279 278 277 277 276
333 333 334 335 334 334 335 334 334 332 330 328 326 324 322 320 318 317 317 318 318 316 312 309 305 302 300 296 295 294 289 286 285 285 283 282 280 278
Height
5739 5737 5736 5734 5733 5731 5730 5729 5728 5727 5726 5724 5723 5722 5721 5721 5720 5720 5720 5721 5721 5722 5723 5724 5725 5727 5729 5731 5732 5734 5737 5739 5741 5743 5746 5748 5751 5754
5732 5730 5729 5727 5726 5724 5722 5720 5719 5718 5717 5716 5715 5714 5713 5712 5712 5711 5711 5712 5712 5713 5714 5715 5716 5718 5719 5721 5723 5725 5727 5729 5731 5734 5736 5738 5741 5744
5725 5723 5722 5720 5718 5717 5715 5713 5712 5710 5709 5708 5707 5706 5705 5704 5704 5703 5703 5703 5703 5704 5705 5706 5707 5708 5710 5711 5713 5715 5717 5719 5721 5723 5726 5728 5730 5733
5719 5717 5715 5713 5711 5709 5707 5706 5704 5703 5701 5700 5699 5698 5697 5696 5695 5694 5694 5695 5695 5695 5696 5697 5698 5699 5700 5702 5703 5704 5706 5708 5710 5713 5715 5718 5720 5722
5713 5711 5708 5706 5704 5701 5700 5698 5697 5695 5693 5692 5691 5690 5689 5688 5687 5686 5686 5686 5686 5686 5687 5688 5689 5689 5690 5692 5693 5694 5696 5698 5700 5702 5704 5706 5709 5712
5707 5705 5702 5699 5697 5695 5693 5691 5689 5687 5685 5684 5683 5682 5681 5680 5679 5678 5678 5677 5677 5678 5678 5678 5679 5680 5680 5681 5683 5684 5685 5687 5689 5691 5693 5695 5698 5700
5701 5699 5696 5693 5691 5688 5686 5683 5681 5679 5677 5675 5674 5673 5672 5671 5670 5670 5669 5669 5669 5668 5669 5669 5669 5670 5670 5671 5672 5673 5675 5676 5678 5680 5682 5684 5687 5689
5696 5692 5689 5687 5684 5681 5679 5676 5674 5671 5669 5667 5666 5665 5663 5662 5662 5661 5661 5660 5660 5661 5659 5660 5659 5660 5660 5661 5662 5663 5665 5666 5667 5669 5671 5673 5675 5678
5690 5687 5683 5680 5678 5675 5672 5669 5666 5663 5661 5659 5658 5656 5655 5654 5653 5653 5652 5651 5651 5651 5650 5650 5650 5650 5651 5651 5652 5653 5654 5656 5657 5658 5660 5662 5664 5666
5685 5681 5678 5674 5671 5668 5665 5662 5659 5657 5654 5652 5650 5649 5647 5646 5645 5644 5643 5642 5642 5641 5641 5641 5641 5642 5642 5642 5643 5643 5644 5645 5647 5648 5649 5651 5653 5655
5680 5676 5673 5669 5665 5661 5658 5655 5653 5650 5647 5645 5643 5641 5640 5638 5637 5636 5635 5634 5633 5633 5632 5632 5633 5633 5633 5633 5634 5634 5635 5636 5637 5638 5639 5641 5642 5645
5675 5671 5667 5663 5659 5655 5652 5649 5646 5644 5641 5639 5637 5634 5633 5631 5629 5628 5626 5625 5625 5625 5624 5623 5624 5624 5624 5625 5625 5625 5626 5626 5627 5628 5629 5631 5632 5634
5670 5666 5662 5658 5654 5650 5646 5643 5640 5637 5635 5632 5630 5628 5625 5624 5622 5620 5618 5617 5617 5616 5616 5615 5615 5615 5616 5616 5616 5617 5617 5617 5618 5619 5620 5621 5622 5624
5665 5661 5657 5653 5649 5645 5641 5638 5634 5631 5629 5626 5624 5621 5619 5617 5615 5613 5611 5610 5609 5608 5608 5608 5608 5607 5607 5608 5608 5608 5609 5609 5610 5610 5611 5612 5613 5615
5661 5656 5652 5648 5644 5640 5636 5632 5629 5626 5623 5620 5617 5615 5613 5611 5609 5607 5605 5604 5603 5602 5601 5600 5600 5600 5599 5599 5600 5600 5601 5601 5601 5602 5602 5603 5604 5606
5656 5652 5648 5643 5639 5635 5631 5627 5624 5620 5617 5614 5612 5609 5607 5605 5603 5601 5599 5598 5597 5596 5595 5594 5593 5592 5592 5591 5592 5592 5592 5593 5593 5594 5594 5595 5596 5597
5652 5648 5643 5639 5634 5630 5626 5622 5619 5615 5612 5610 5607 5604 5602 5599 5597 5595 5594 5592 5591 5590 5589 5588 5587 5586 5585 5585 5584 5584 5584 5585 5585 5586 5586 5587 5588 5589
5647 5643 5639 5634 5629 5625 5621 5617 5613 5610 5607 5604 5602 5599 5596 5594 5592 5590 5588 5587 5585 5584 5583 5582 5581 5580 5579 5579 5578 5578 5578 5578 5578 5578 5579 5579 5580 5581
5644 5639 5635 5630 5625 5621 5616 5612 5609 5606 5603 5599 5596 5594 5591 5589 5587 5585 5583 5581 5580 5578 5577 5576 5575 5574 5573 5573 5572 5572 5572 5572 5572 5572 5572 5572 5573 5574
5640 5635 5631 5626 5621 5617 5612 5608 5605 5601 5598 5595 5592 5589 5586 5584 5582 5580 5578 5576 5574 5573 5571 5570 5569 5567 5567 5567 5566 5566 5566 5566 5566 5566 5566 5566 5567 5567
5636 5631 5627 5622 5617 5613 5609 5605 5601 5597 5594 5591 5588 5585 5582 5580 5578 5576 5573 5571 5569 5568 5566 5565 5563 5562 5561 5561 5561 5561 5560 5560 5560 5560 5560 5560 5560 5560
5632 5627 5623 5618 5614 5610 5605 5601 5598 5594 5591 5588 5585 5582 5579 5576 5574 5571 5569 5567 5565 5563 5561 5560 5558 5558 5557 5556 5556 5555 5555 5555 5554 5554 5554 5554 5554 5554
5628 5624 5619 5615 5611 5607 5603 5599 5595 5591 5588 5584 5581 5578 5575 5572 5570 5567 5565 5563 5561 5559 5557 5555 5554 5553 5552 5551 5551 5550 5550 5549 5549 5549 5548 5548 5548 5548